Location: Corcelles
(46.1547°N, 4.7234°E)
Time: 08:36:11
(UTC+00:00)

Cosmos 2100 Rocket - Pass Details

Date: 14 July 2020
Orbit: 955 x 1002 km, 82.9° (Epoch: 14 August)

Event Time Altitude Azimuth Distance (km) Brightness Sun altitude
Exits shadow 00:45:06 32° 162° (SSE) 1,606 4.7 -20.9°
Maximum altitude 00:48:00 63° 94° (E) 1,087 4.2 -20.8°
Drops below altitude 10° 00:54:09 10° 14° (NNE) 2,726 7.5 -20.5°
Sets 00:56:40 0° 12° (NNE) 3,671 8.6 -20.4°
